Content
SEND FEEDBACK

Daily
Averages
Monthly
Summary
France

BIARRITZ, FRANCE


Home > Europe > France
Elevation: 246 feet     Latitude: 43 28N     Longitude: 001 31W

WEATHER
 
SELECT A DAY
Number of Records: 190,907;   Date Range: 7/1/96 - 7/27/14
 
SHARE

PRINT THIS DATA

[ ← Previous Day ]
WEATHER ALMANAC - JUNE 26, 2013
[ Next Day → ]
[ °C ]   °F
We're sorry. There is no daily almanac available for Biarritz, France on June 26, 2013.
WEATHER BY HOUR - JUNE 26, 2013
[ °C ]   °F
Local TimeTemperatureDewpointHumidityBarometerVisibilityWind DirectionWind SpeedGust SpeedPrecipitationEventsConditions
12:30 AM57.2 °F51.8 °F82 %30.39 in6.2 miCalm
1:00 AM57.2 °F51.8 °F82 %30.39 in6.2 miCalm
1:30 AM55.4 °F51.8 °F88 %30.39 in6.2 miSSW (200°)2.3 mphMostly Cloudy
2:00 AM55.4 °F51.8 °F88 %30.39 in6.2 miSSW (200°)2.3 mphOvercast
2:30 AM57.2 °F51.8 °F82 %30.39 in6.2 miSSW (210°)2.3 mphOvercast
3:00 AM57.2 °F51.8 °F82 %30.39 in6.2 miVariable2.3 mphMostly Cloudy
3:30 AM55.4 °F51.8 °F88 %30.36 in6.2 miVariable2.3 mphPartly Cloudy
4:00 AM55.4 °F50.0 °F82 %30.36 in6.2 miSSW (210°)2.3 mph
4:30 AM55.4 °F51.8 °F88 %30.36 in6.2 miSSE (160°)3.5 mph
5:00 AM53.6 °F50.0 °F88 %30.36 in6.2 miSSE (160°)3.5 mph
5:30 AM53.6 °F50.0 °F88 %30.36 in6.2 miSSE (150°)2.3 mph
6:00 AM53.6 °F50.0 °F88 %30.36 in6.2 miSSE (150°)3.5 mphScattered Clouds
6:30 AM51.8 °F50.0 °F94 %30.36 in6.2 miSSE (150°)3.5 mphScattered Clouds
6:34 AM51.8 °F50.0 °F94 %30.36 in6.2 miSSE (150°)3.5 mphScattered Clouds
7:00 AM51.8 °F50.0 °F94 %30.36 in6.2 miEast (100°)2.3 mphFogShallow Fog
7:36 AM53.6 °F51.8 °F94 %30.36 in6.2 miENE (60°)3.5 mphFogShallow Fog
8:00 AM55.4 °F51.8 °F88 %30.36 in6.2 miEast (90°)2.3 mphFogShallow Fog
8:30 AM57.2 °F53.6 °F88 %30.36 inVariable2.3 mphClear
9:00 AM59.0 °F53.6 °F82 %30.36 inENE (60°)4.6 mphClear
9:30 AM60.8 °F53.6 °F77 %30.36 inENE (60°)5.8 mphClear
10:00 AM60.8 °F53.6 °F77 %30.36 inENE (70°)8.1 mphClear
10:30 AM62.6 °F55.4 °F77 %30.36 in6.2 miEast (80°)6.9 mphPartly Cloudy
11:00 AM64.4 °F53.6 °F68 %30.36 in6.2 miENE (60°)8.1 mphPartly Cloudy
11:30 AM66.2 °F50.0 °F56 %30.36 in6.2 miENE (70°)12.7 mphPartly Cloudy
12:00 PM68.0 °F50.0 °F52 %30.36 in6.2 miENE (70°)11.5 mphPartly Cloudy
1:00 PM69.8 °F50.0 °F49 %30.36 in6.2 miENE (70°)9.2 mphPartly Cloudy
1:30 PM69.8 °F48.2 °F46 %30.36 in6.2 miEast (90°)11.5 mphPartly Cloudy
2:00 PM69.8 °F46.4 °F43 %30.36 in6.2 miNE (50°)11.5 mphPartly Cloudy
2:30 PM69.8 °F48.2 °F46 %30.33 in6.2 miENE (60°)9.2 mphPartly Cloudy
3:00 PM71.6 °F48.2 °F43 %30.33 in6.2 miENE (70°)8.1 mphPartly Cloudy
3:30 PM69.8 °F51.8 °F53 %30.33 in6.2 miENE (70°)5.8 mphPartly Cloudy
4:00 PM68.0 °F55.4 °F64 %30.33 in6.2 miNNW (340°)10.4 mphPartly Cloudy
4:30 PM68.0 °F51.8 °F56 %30.33 in6.2 miNNW (330°)11.5 mphPartly Cloudy
5:00 PM68.0 °F53.6 °F60 %30.33 in6.2 miNNW (340°)12.7 mphPartly Cloudy
5:30 PM68.0 °F53.6 °F60 %30.30 in6.2 miNorth (350°)12.7 mphPartly Cloudy
6:00 PM68.0 °F55.4 °F64 %30.33 in6.2 miNorth (350°)13.8 mphPartly Cloudy
6:30 PM66.2 °F53.6 °F64 %30.33 in6.2 miNorth (350°)12.7 mphPartly Cloudy
7:00 PM66.2 °F53.6 °F64 %30.30 in6.2 miNorth (350°)12.7 mphPartly Cloudy
7:30 PM66.2 °F55.4 °F68 %30.30 in6.2 miNorth (350°)11.5 mphPartly Cloudy
8:00 PM66.2 °F55.4 °F68 %30.30 in6.2 miNorth (350°)11.5 mphPartly Cloudy
8:30 PM64.4 °F55.4 °F73 %30.30 in6.2 miNorth (350°)10.4 mph
9:00 PM64.4 °F55.4 °F73 %30.30 in6.2 miNorth (350°)9.2 mph
9:30 PM64.4 °F55.4 °F73 %30.30 in6.2 miVariable3.5 mph
10:00 PM62.6 °F55.4 °F77 %30.30 in6.2 miCalm
10:30 PM62.6 °F55.4 °F77 %30.30 in6.2 miCalm
11:00 PM60.8 °F55.4 °F82 %30.30 in6.2 miSouth (170°)3.5 mph
11:30 PM59.0 °F55.4 °F88 %30.33 in6.2 miSouth (190°)3.5 mph
Hourly data recorded from LFBZ, located miles away from Biarritz, France







STORIES FROM OUR PARTNERS